Location: Seattle
(47.6064°N, 122.3308°W)
Time: 03:55:47
(UTC-08:00)

S-56A Canister/Altair - Pass Details

Date: 26 November 2020
Orbit: 633 x 2499 km, 38.9° (Epoch: 23 January)

Event Time Altitude Azimuth Distance (km) Brightness Sun altitude
Rises 01:26:59 0° 268° (W) 3,709 - -57.8°
Reaches altitude 10° 01:30:46 10° 250° (WSW) 2,467 - -57.4°
Maximum altitude 01:34:17 17° 210° (SSW) 1,802 - -57.0°
Drops below altitude 10° 01:37:21 10° 169° (S) 2,096 - -56.6°
Sets 01:40:12 0° 148° (SSE) 2,926 - -56.3°
